Location: Newark
(36.1358°N, 115.1208°W)
Time: 11:08:50
(UTC+00:00)

Vanguard 1 Rocket - Pass Details

Date: 22 February 2020
Orbit: 650 x 4226 km, 34.3° (Epoch: 06 April)

Event Time Altitude Azimuth Distance (km) Brightness Sun altitude
Rises 07:34:13 0° 217° (SW) 6,659 - -63.8°
Reaches altitude 10° 07:40:14 10° 207° (SSW) 4,969 - -64.0°
Maximum altitude 07:49:57 26° 157° (SSE) 2,685 - -64.2°
Drops below altitude 10° 07:55:59 10° 103° (ESE) 2,995 - -64.2°
Sets 07:58:34 0° 89° (E) 3,648 - -64.2°
